Voltar ao catálogo

GSAT 12

AtivoComunicaçõesGEO
NORAD 37746·PAYLOAD·🇮🇳 India

Lançado Jul 15, 2011 de Satish Dhawan Space Centre

Loading…

TLE

AtualizadoSource: Space-Track

Época: Sep 14, 2026, 14:00 UTC

1 37746U 11034A   26257.58350772  .00000019  00000-0  00000-0 0  9995
2 37746   5.5269  74.8721 0006376 164.1403   6.8070  0.98859481 44210

Acompanhe GSAT 12 em tempo real com AllMySat

Download on the App Store